Regional Weather Roundup
Issued by NWS Sioux Falls, SD

Home | Current Version | Previous Version | Text Only | Print | Product List | Glossary Off
Versions: 1 2 3 4 5 6 7 8 9 10 11 12 13 14 15 16 17 18 19 20 21 22 23 24 25 26 27 28 29 30 31 32 33 34 35 36 37 38 39 40 41 42 43 44 45 46 47 48 49 50

027
ASUS43 KFSD 230410
RWRFSD

WEATHER ROUNDUP FOR SE SOUTH DAKOTA/SW MINNESOTA/NW IOWA
NATIONAL WEATHER SERVICE SIOUX FALLS SD
1100 PM CDT FRI SEP 22 2017

NOTE: "FAIR" INDICATES FEW OR NO CLOUDS BELOW 12,000 FEET WITH NO
SIGNIFICANT WEATHER AND OR OBSTRUCTIONS TO VISIBILITY.


SDZ038>040-050-052>070-230500-
SOUTHEAST SOUTH DAKOTA

CITY           SKY/WX    TMP DP  RH WIND       PRES   REMARKS
BROOKINGS      PTCLDY    66  65  96 W5        29.81S
CHAMBERLAIN    CLOUDY    58  54  89 W7        29.90R
HURON          LGT RAIN  57  55  93 N13       29.85R
MADISON        FAIR      64  64 100 NW6       29.83R
MITCHELL       CLOUDY    62  57  83 N7        29.84R
SIOUX FALLS    MOCLDY    73  67  81 NW5       29.80R
WINNER         CLOUDY    57  50  77 NW13      29.93R
YANKTON        CLOUDY    68  61  78 W10       29.82R
$$

MNZ071-072-080-081-089-090-097-098-230500-
SOUTHWEST MINNESOTA

CITY           SKY/WX    TMP DP  RH WIND       PRES   REMARKS
FAIRMONT       CLEAR     79  68  69 S21       29.86R
JACKSON        CLOUDY    79  64  61 S15G22    29.88R
LUVERNE        PTCLDY    77  64  65 S10       29.82R
MARSHALL       CLOUDY    82  68  62 S22G28    29.77F
MONTEVIDEO     LGT RAIN  73  72  94 S3        29.78F
PIPESTONE      CLOUDY    79  66  65 S7        29.83R
REDWOOD FALLS  CLOUDY    82  66  58 S16       29.80R
TRACY          PTCLDY    81  69  67 S14G20    29.82R
WINDOM         CLEAR     81  66  61 S14G21    29.84S
WORTHINGTON    PTCLDY    79  68  69 S13G21    29.86R
$$

IAZ001>003-012>014-020>022-031-032-NEZ013-014-SDZ071-230500-
NORTHWEST IOWA

CITY           SKY/WX    TMP DP  RH WIND       PRES   REMARKS
CHEROKEE       CLOUDY    78  68  70 S13G20    29.86R
DENISON        CLEAR     77  68  73 S15G23    29.91S
ESTHERVILLE    CLOUDY    77  68  73 S18G28    29.86R
LE MARS        CLOUDY    82  68  61 S20G32    29.82R
ORANGE CITY    PTCLDY    81  70  69 S14G21    29.84R
SHELDON        PTCLDY    79  68  69 S16G28    29.82R
SIOUX CITY     CLOUDY    81  69  67 S15       29.83R
SPENCER        PTCLDY    79  68  69 S18G28    29.86R
STORM LAKE     PTCLDY    75  68  78 S12G18    29.89S
$$

ABBREVIATIONS USED IN REMARKS
   TC - TEMPERATURE IN CELSIUS
  WCI - WIND CHILL INDEX
   HX - HEAT INDEX
  VSB - VISIBILITY





USA.gov is the U.S. government's official web portal to all federal, state and local government web resources and services.